Location: Caltech
(34.1382°N, 118.1253°W)
Time: 15:29:41
(UTC-07:00)

Cosmos 2237 Rocket - Visible Passes

Search period start: 26 March 2015 00:00
Search period end: 05 April 2015 00:00
Orbit: 833 x 852 km, 71.0° (Epoch: 26 March)

Date Brightness Start Highest point End Pass type
(mag) Time Alt. Az. Time Alt. Az. Time Alt. Az.
26 Mar 3.5 20:40:50 10° N 20:45:06 23° ENE 20:45:06 23° ENE visible
26 Mar 4.0 22:24:08 10° NW 22:26:58 27° NW 22:26:58 27° NW visible
27 Mar 3.5 20:26:08 10° N 20:30:22 22° ENE 20:31:10 21° ENE visible
27 Mar 3.5 22:09:18 10° NW 22:13:02 36° WNW 22:13:02 36° WNW visible
28 Mar 3.5 20:11:25 10° N 20:15:33 21° ENE 20:17:17 18° E visible
28 Mar 3.1 21:54:28 10° NNW 21:59:09 45° W 21:59:09 45° W visible
29 Mar 3.6 19:56:44 10° NNE 20:00:43 20° NE 20:03:29 15° E visible
29 Mar 2.8 21:39:40 10° NNW 21:45:11 51° WSW 21:45:22 51° WSW visible
30 Mar 3.7 19:42:03 10° NNE 19:45:54 19° NE 19:49:47 10° E visible
30 Mar 2.7 21:24:51 10° NNW 21:30:24 54° WSW 21:31:40 45° SSW visible
31 Mar 2.7 21:10:02 10° NNW 21:15:37 57° WSW 21:18:04 32° S visible
01 Apr 2.6 20:55:13 10° NNW 21:00:50 61° WSW 21:04:34 21° S visible
02 Apr 2.6 20:40:25 10° NNW 20:46:03 64° WSW 20:51:13 12° S visible
03 Apr 2.5 20:25:37 10° NNW 20:31:16 68° WSW 20:36:53 10° S visible
04 Apr 2.5 20:10:49 10° NNW 20:16:29 72° WSW 20:22:07 10° SSE visible
